This is the latest recevied weather packets stored in our database for station/object EA3CTN-13. If no packets are shown the sender has not sent any weather packets the latest 10 day(s).
| Time | Temp. | Humidity | Pressure | Rain* | Wind** | Luminosity | Snow |
|---|---|---|---|---|---|---|---|
| 1777299323 | 23.89° C | 31% | 1017.6 hPa | - | - | - | - |
| 1777298363 | 23.89° C | 38% | 1017.9 hPa | - | - | - | - |
| 1777296925 | 24.44° C | 38% | 1018.2 hPa | - | - | - | - |
| 1777295963 | 24.44° C | 39% | 1018.4 hPa | - | - | - | - |
| 1777295483 | 24.44° C | 40% | 1018.5 hPa | - | - | - | - |
| 1777293564 | 24.44° C | 39% | 1018.5 hPa | - | - | - | - |
| 1777293083 | 24.44° C | 35% | 1018.5 hPa | - | - | - | - |
| 1777292603 | 24.44° C | 38% | 1018.5 hPa | - | - | - | - |
| 1777292123 | 24.44° C | 37% | 1018.7 hPa | - | - | - | - |
| 1777291644 | 24.44° C | 38% | 1018.8 hPa | - | - | - | - |
| 1777290683 | 24.44° C | 37% | 1018.9 hPa | - | - | - | - |
| 1777289723 | 24.44° C | 38% | 1019.1 hPa | - | - | - | - |
| 1777289243 | 24.44° C | 39% | 1019 hPa | - | - | - | - |
| 1777288763 | 24.44° C | 40% | 1019.2 hPa | - | - | - | - |
| 1777288283 | 24.44° C | 41% | 1019.3 hPa | - | - | - | - |
| 1777287806 | 24.44° C | 41% | 1019.3 hPa | - | - | - | - |
| 1777286363 | 23.89° C | 44% | 1019.4 hPa | - | - | - | - |
| 1777285883 | 23.89° C | 44% | 1019.4 hPa | - | - | - | - |
| 1777285403 | 23.89° C | 43% | 1019.4 hPa | - | - | - | - |
| 1777284923 | 23.89° C | 43% | 1019.3 hPa | - | - | - | - |
| 1777284443 | 23.89° C | 43% | 1019.3 hPa | - | - | - | - |
| 1777283963 | 23.33° C | 45% | 1019.4 hPa | - | - | - | - |
| 1777283483 | 23.33° C | 46% | 1019.5 hPa | - | - | - | - |
| 1777282523 | 23.33° C | 45% | 1019.4 hPa | - | - | - | - |
| 1777282043 | 22.78° C | 45% | 1019.4 hPa | - | - | - | - |
* Rain since midnight (hover to see other rain measurements)
** Current wind speed in m/s (hover to see current wind gust speed)